FJL735 OPLA-OPIS

Flight info

Callsign FJL735
Flight time N/A
Altitude 28000
Route AKBER1D AKBER J121 INDEK INDEK1A
Aircraft A320/M-SDE3FGHIRWY/LB1

Departure

Time 2026-05-06 06:57
Airport Allama Iqbal International Airport (OPLA)

Arrival

Time N/A
Airport Islamabad International Airport (OPIS)
Time Latitude Longitude Altitude Speed Heading
2026-05-06 06:46 31.52028 74.40754 722 ft 0 kts 270°
2026-05-06 06:49 31.52028 74.40776 722 ft 4 kts 271°
2026-05-06 06:50 31.52027 74.40808 722 ft 4 kts 277°
2026-05-06 06:50 31.52020 74.40837 721 ft 4 kts 313°
2026-05-06 06:50 31.52009 74.40845 722 ft 0 kts
2026-05-06 06:52 31.52010 74.40845 722 ft 1 kts 360°
2026-05-06 06:52 31.52024 74.40845 721 ft 3 kts
2026-05-06 06:52 31.52056 74.40845 722 ft 6 kts 359°
2026-05-06 06:52 31.52108 74.40845 724 ft 9 kts
2026-05-06 06:53 31.52175 74.40846 724 ft 11 kts
2026-05-06 06:53 31.52265 74.40849 724 ft 16 kts
2026-05-06 06:53 31.52382 74.40834 722 ft 16 kts 327°
2026-05-06 06:53 31.52404 74.40713 722 ft 16 kts 264°
2026-05-06 06:54 31.52365 74.40670 722 ft 6 kts 172°
2026-05-06 06:54 31.52315 74.40671 723 ft 14 kts 178°
2026-05-06 06:54 31.52155 74.40664 724 ft 27 kts 181°
2026-05-06 06:54 31.51968 74.40658 723 ft 28 kts 181°
2026-05-06 06:55 31.51789 74.40661 722 ft 22 kts 179°
2026-05-06 06:55 31.51719 74.40679 722 ft 2 kts 130°
2026-05-06 06:55 31.51711 74.40675 723 ft 6 kts 201°
2026-05-06 06:55 31.51621 74.40660 723 ft 14 kts 179°
2026-05-06 06:56 31.51536 74.40631 724 ft 12 kts 224°
2026-05-06 06:56 31.51519 74.40536 722 ft 14 kts 270°
2026-05-06 06:56 31.51527 74.40451 722 ft 1 kts 302°
2026-05-06 06:56 31.51734 74.40465 724 ft 71 kts 358°
2026-05-06 06:57 31.52507 74.40458 721 ft 148 kts 358°
2026-05-06 06:57 31.53631 74.40644 1248 ft 154 kts 11°
2026-05-06 06:57 31.54605 74.41031 2040 ft 160 kts 20°
2026-05-06 06:57 31.55808 74.41700 1981 ft 225 kts 27°
2026-05-06 06:58 31.57378 74.42617 2159 ft 269 kts 14°
2026-05-06 06:58 31.59205 74.42551 3327 ft 266 kts 339°
2026-05-06 06:58 31.60675 74.41274 4565 ft 269 kts 305°
2026-05-06 06:58 31.61602 74.39367 5879 ft 270 kts 298°
2026-05-06 06:59 31.62487 74.37411 7159 ft 273 kts 298°
2026-05-06 06:59 31.63384 74.35422 8424 ft 277 kts 298°
2026-05-06 06:59 31.64290 74.33413 9655 ft 281 kts 298°
2026-05-06 06:59 31.65343 74.31410 10481 ft 300 kts 308°
2026-05-06 07:00 31.66778 74.29497 10913 ft 324 kts 314°
2026-05-06 07:00 31.68473 74.27607 11143 ft 345 kts 317°
2026-05-06 07:00 31.70293 74.25714 11703 ft 353 kts 319°
2026-05-06 07:00 31.72142 74.23801 12418 ft 356 kts 318°
2026-05-06 07:01 31.73966 74.21869 13148 ft 359 kts 317°
2026-05-06 07:01 31.75804 74.19867 13845 ft 362 kts 317°
2026-05-06 07:01 31.77641 74.17819 14476 ft 365 kts 316°
2026-05-06 07:01 31.79476 74.15739 15109 ft 367 kts 316°
2026-05-06 07:02 31.81313 74.13641 15735 ft 370 kts 316°
2026-05-06 07:02 31.83168 74.11523 16360 ft 372 kts 316°
2026-05-06 07:02 31.85070 74.09438 16971 ft 374 kts 321°
2026-05-06 07:02 31.87122 74.07533 17542 ft 377 kts 322°
2026-05-06 07:03 31.89191 74.05618 18101 ft 381 kts 323°
2026-05-06 07:03 31.91248 74.03705 18582 ft 384 kts 323°
2026-05-06 07:03 31.93356 74.01738 19112 ft 386 kts 322°
2026-05-06 07:03 31.95468 73.99779 19626 ft 387 kts 323°
2026-05-06 07:04 31.97609 73.97847 20174 ft 388 kts 323°
2026-05-06 07:04 31.99774 73.95930 20695 ft 389 kts 324°
2026-05-06 07:04 32.01952 73.94010 21200 ft 391 kts 324°
2026-05-06 07:04 32.04106 73.92105 21693 ft 392 kts 323°
2026-05-06 07:05 32.06293 73.90164 22184 ft 394 kts 323°
2026-05-06 07:05 32.08490 73.88205 22663 ft 396 kts 323°
2026-05-06 07:05 32.10697 73.86234 23140 ft 398 kts 323°
2026-05-06 07:05 32.12916 73.84249 23540 ft 401 kts 324°
2026-05-06 07:06 32.15119 73.82275 23878 ft 403 kts 323°
2026-05-06 07:06 32.17363 73.80261 24241 ft 405 kts 323°
2026-05-06 07:06 32.19620 73.78233 24609 ft 407 kts 323°
2026-05-06 07:06 32.21875 73.76207 24972 ft 408 kts 323°
2026-05-06 07:07 32.24147 73.74163 25340 ft 410 kts 323°
2026-05-06 07:07 32.26398 73.72135 25697 ft 412 kts 323°
2026-05-06 07:07 32.28679 73.70082 26056 ft 413 kts 323°
2026-05-06 07:07 32.30980 73.68015 26401 ft 415 kts 323°
2026-05-06 07:08 32.32509 73.66642 26629 ft 416 kts 323°
2026-05-06 07:08 32.34823 73.64563 26940 ft 417 kts 323°
2026-05-06 07:08 32.37890 73.61800 27373 ft 419 kts 323°
2026-05-06 07:08 32.39462 73.60380 27590 ft 420 kts 323°
2026-05-06 07:09 32.41756 73.58310 27825 ft 421 kts 323°
2026-05-06 07:09 32.44086 73.56207 27886 ft 421 kts 323°
2026-05-06 07:09 32.46407 73.54107 27887 ft 420 kts 323°
2026-05-06 07:09 32.48734 73.51998 27890 ft 420 kts 323°
2026-05-06 07:10 32.51060 73.49890 27885 ft 420 kts 323°
2026-05-06 07:10 32.53381 73.47788 27887 ft 420 kts 323°
2026-05-06 07:10 32.55703 73.45687 27887 ft 420 kts 323°
2026-05-06 07:10 32.58031 73.43580 27893 ft 420 kts 323°
2026-05-06 07:11 32.60354 73.41474 27886 ft 421 kts 323°
2026-05-06 07:11 32.62677 73.39362 27887 ft 421 kts 323°
2026-05-06 07:11 32.65009 73.37240 27887 ft 421 kts 323°
2026-05-06 07:11 32.67331 73.35123 27887 ft 421 kts 323°
2026-05-06 07:12 32.69631 73.33027 27887 ft 421 kts 323°
2026-05-06 07:12 32.71954 73.30911 27887 ft 421 kts 323°
2026-05-06 07:12 32.74362 73.28938 27877 ft 419 kts 330°
2026-05-06 07:12 32.76961 73.27378 27891 ft 418 kts 337°
2026-05-06 07:13 32.79630 73.26010 27889 ft 418 kts 331°
2026-05-06 07:13 32.82035 73.24053 27885 ft 419 kts 322°
2026-05-06 07:13 32.84240 73.21770 27026 ft 421 kts 319°
2026-05-06 07:13 32.86449 73.19378 25259 ft 438 kts 320°
2026-05-06 07:14 32.88779 73.17005 23715 ft 452 kts 322°
2026-05-06 07:14 32.91309 73.14693 22669 ft 451 kts 325°
2026-05-06 07:14 32.93837 73.12591 21781 ft 442 kts 327°
2026-05-06 07:14 32.96371 73.10602 20346 ft 433 kts 328°
2026-05-06 07:15 32.98898 73.08671 18928 ft 427 kts 328°
2026-05-06 07:15 33.01387 73.06763 17495 ft 422 kts 328°
2026-05-06 07:15 33.03831 73.04854 16065 ft 416 kts 327°
2026-05-06 07:15 33.06233 73.02946 14710 ft 415 kts 327°
2026-05-06 07:16 33.08635 73.01016 13948 ft 415 kts 326°
2026-05-06 07:16 33.10981 72.99117 13264 ft 410 kts 326°
2026-05-06 07:16 33.13356 72.97190 12605 ft 404 kts 326°
2026-05-06 07:16 33.15634 72.95342 11974 ft 398 kts 326°
2026-05-06 07:17 33.17905 72.93505 11323 ft 392 kts 326°
2026-05-06 07:17 33.20131 72.91705 11068 ft 378 kts 326°
2026-05-06 07:17 33.22259 72.89984 10948 ft 360 kts 326°
2026-05-06 07:17 33.24289 72.88343 10821 ft 344 kts 326°
2026-05-06 07:18 33.26233 72.86772 10706 ft 330 kts 326°
2026-05-06 07:18 33.28096 72.85266 10584 ft 317 kts 327°
2026-05-06 07:18 33.29889 72.83817 10476 ft 305 kts 327°
2026-05-06 07:18 33.31608 72.82424 10328 ft 295 kts 327°
2026-05-06 07:19 33.33266 72.81078 10155 ft 288 kts 327°
2026-05-06 07:19 33.34922 72.79733 10097 ft 287 kts 327°
2026-05-06 07:19 33.36572 72.78392 10000 ft 287 kts 327°
2026-05-06 07:19 33.38237 72.77037 9547 ft 293 kts 326°
2026-05-06 07:20 33.39919 72.75670 9221 ft 288 kts 326°
2026-05-06 07:20 33.41576 72.74323 8805 ft 287 kts 326°
2026-05-06 07:20 33.43230 72.72978 8408 ft 286 kts 326°
2026-05-06 07:20 33.44862 72.71653 8038 ft 285 kts 326°
2026-05-06 07:21 33.46484 72.70337 7533 ft 281 kts 326°
2026-05-06 07:21 33.48105 72.69018 6874 ft 279 kts 325°
2026-05-06 07:21 33.49710 72.67710 6218 ft 279 kts 325°
2026-05-06 07:21 33.51302 72.66412 5654 ft 272 kts 324°
2026-05-06 07:22 33.52804 72.65189 5437 ft 253 kts 325°
2026-05-06 07:22 33.54214 72.64044 5312 ft 233 kts 325°
2026-05-06 07:22 33.55596 72.63300 5194 ft 208 kts 355°
2026-05-06 07:22 33.56873 72.63783 5117 ft 187 kts 43°
2026-05-06 07:23 33.57384 72.65131 4777 ft 182 kts 91°
2026-05-06 07:23 33.57234 72.66630 4370 ft 180 kts 98°
2026-05-06 07:23 33.57045 72.68091 3998 ft 178 kts 99°
2026-05-06 07:23 33.56829 72.69572 3592 ft 177 kts 101°
2026-05-06 07:24 33.56615 72.70977 3323 ft 171 kts 100°
2026-05-06 07:24 33.56404 72.72340 3092 ft 161 kts 101°
2026-05-06 07:24 33.56209 72.73599 2890 ft 150 kts 100°
2026-05-06 07:24 33.56024 72.74788 2699 ft 143 kts 101°
2026-05-06 07:25 33.55842 72.75959 2516 ft 141 kts 101°
2026-05-06 07:25 33.55665 72.77099 2359 ft 137 kts 101°
2026-05-06 07:25 33.55494 72.78197 2186 ft 131 kts 104°
2026-05-06 07:25 33.55327 72.79264 2018 ft 131 kts 101°
2026-05-06 07:26 33.55159 72.80338 1832 ft 130 kts 102°
2026-05-06 07:26 33.54987 72.81375 1783 ft 124 kts 103°
2026-05-06 07:26 33.54831 72.82394 1925 ft 124 kts 98°
2026-05-06 07:26 33.54691 72.83423 2068 ft 129 kts 106°
2026-05-06 07:27 33.54493 72.84482 2278 ft 131 kts 98°
2026-05-06 07:27 33.54423 72.85536 2707 ft 132 kts 87°
2026-05-06 07:27 33.54451 72.86765 2506 ft 158 kts 90°
2026-05-06 07:27 33.54292 72.88086 2440 ft 163 kts 102°
2026-05-06 07:28 33.54035 72.89420 2898 ft 163 kts 103°
2026-05-06 07:28 33.53481 72.90604 3354 ft 166 kts 144°
2026-05-06 07:28 33.51303 72.90922 4082 ft 162 kts 191°
2026-05-06 07:29 33.50171 72.90708 3748 ft 169 kts 192°
2026-05-06 07:29 33.49016 72.90463 3727 ft 173 kts 193°
2026-05-06 07:29 33.47840 72.90178 3712 ft 175 kts 201°
2026-05-06 07:29 33.46922 72.89286 3702 ft 173 kts 244°
2026-05-06 07:30 33.46739 72.87902 3712 ft 170 kts 276°
2026-05-06 07:30 33.46934 72.86506 3713 ft 171 kts 282°
2026-05-06 07:30 33.47184 72.85150 3702 ft 161 kts 283°
2026-05-06 07:30 33.47452 72.83790 3716 ft 171 kts 283°
2026-05-06 07:31 33.47726 72.82417 3717 ft 172 kts 282°
2026-05-06 07:31 33.48015 72.81023 3707 ft 172 kts 283°
2026-05-06 07:31 33.48307 72.79621 3706 ft 175 kts 282°
2026-05-06 07:31 33.48588 72.78205 3700 ft 175 kts 282°
2026-05-06 07:32 33.48858 72.76797 3692 ft 166 kts 282°
2026-05-06 07:32 33.49106 72.75516 3703 ft 155 kts 282°
2026-05-06 07:32 33.49350 72.74269 3699 ft 151 kts 283°
2026-05-06 07:32 33.49700 72.73107 3675 ft 149 kts 311°
2026-05-06 07:33 33.50610 72.72565 3642 ft 156 kts
2026-05-06 07:33 33.51585 72.73091 3911 ft 165 kts 44°
2026-05-06 07:33 33.52370 72.74198 3753 ft 172 kts 40°
2026-05-06 07:33 33.53434 72.74680 3720 ft 163 kts 355°
2026-05-06 07:34 33.54553 72.74504 3713 ft 162 kts 351°
2026-05-06 07:34 33.55636 72.74753 3538 ft 170 kts 34°
2026-05-06 07:34 33.56168 72.76079 2822 ft 196 kts 85°
2026-05-06 07:34 33.56105 72.77750 2540 ft 190 kts 95°
2026-05-06 07:35 33.55835 72.79250 2309 ft 184 kts 110°
2026-05-06 07:35 33.55309 72.80647 1823 ft 179 kts 110°
2026-05-06 07:35 33.55117 72.81911 1764 ft 130 kts 101°
2026-05-06 07:35 33.54973 72.82855 1763 ft 92 kts 96°